iso_date,epoch_date,Year,Hour,Min,DOY,POS_DOY,Lat,Lon,BP,Ts,Ta,has_bp,has_ts,has_ta,BuoyID,Buoy_Type,Buoy_Owner,Logistics,Hemisphere
2017-07-03T09:00:00Z,1499072400,2017,9,0,184.375,184.375,55.0002,-167.1686,1018.9,8.33,-999.0,yes,yes,no,300234064824370,BD2GI,AOML,NORSEMAN_II,North
2017-07-03T10:00:28Z,1499076029,2017,10,0,184.417,184.417,54.9972,-167.1562,1019.4,8.33,-999.0,yes,yes,no,300234064824370,BD2GI,AOML,NORSEMAN_II,North
2017-07-03T10:59:31Z,1499079571,2017,11,0,184.458,184.458,54.9924,-167.144,1019.8,8.33,-999.0,yes,yes,no,300234064824370,BD2GI,AOML,NORSEMAN_II,North
2017-07-03T12:00:00Z,1499083200,2017,12,0,184.5,184.5,54.987,-167.1366,1019.7,8.3,-999.0,yes,yes,no,300234064824370,BD2GI,AOML,NORSEMAN_II,North
2017-07-03T13:00:28Z,1499086829,2017,13,0,184.542,184.542,54.9812,-167.131,1019.9,8.24,-999.0,yes,yes,no,300234064824370,BD2GI,AOML,NORSEMAN_II,North
2017-07-03T13:59:31Z,1499090371,2017,14,0,184.583,184.583,54.9754,-167.127,1020.1,8.23,-999.0,yes,yes,no,300234064824370,BD2GI,AOML,NORSEMAN_II,North
2017-07-03T15:00:00Z,1499094000,2017,15,0,184.625,184.625,54.969,-167.1266,1020.6,8.26,-999.0,yes,yes,no,300234064824370,BD2GI,AOML,NORSEMAN_II,North
2017-07-03T16:00:28Z,1499097629,2017,16,0,184.667,184.667,54.9636,-167.1266,1021.0,8.28,-999.0,yes,yes,no,300234064824370,BD2GI,AOML,NORSEMAN_II,North
2017-07-03T16:59:31Z,1499101171,2017,17,0,184.708,184.708,54.9576,-167.13,1021.4,8.29,-999.0,yes,yes,no,300234064824370,BD2GI,AOML,NORSEMAN_II,North
2017-07-03T18:00:00Z,1499104800,2017,18,0,184.75,184.75,54.9536,-167.1338,1022.0,8.31,-999.0,yes,yes,no,300234064824370,BD2GI,AOML,NORSEMAN_II,North
2017-07-03T19:00:28Z,1499108429,2017,19,0,184.792,184.792,54.952,-167.1336,1022.3,8.31,-999.0,yes,yes,no,300234064824370,BD2GI,AOML,NORSEMAN_II,North
2017-07-03T19:59:31Z,1499111971,2017,20,0,184.833,184.833,54.951,-167.1284,1022.6,8.33,-999.0,yes,yes,no,300234064824370,BD2GI,AOML,NORSEMAN_II,North
2017-07-03T21:00:00Z,1499115600,2017,21,0,184.875,184.875,54.9494,-167.1202,1022.6,8.36,-999.0,yes,yes,no,300234064824370,BD2GI,AOML,NORSEMAN_II,North
2017-07-03T22:00:28Z,1499119229,2017,22,0,184.917,184.917,54.9472,-167.1078,1023.3,8.42,-999.0,yes,yes,no,300234064824370,BD2GI,AOML,NORSEMAN_II,North
2017-07-03T22:59:31Z,1499122771,2017,23,0,184.958,184.958,54.944,-167.0938,1023.6,8.52,-999.0,yes,yes,no,300234064824370,BD2GI,AOML,NORSEMAN_II,North
2017-07-04T00:00:00Z,1499126400,2017,0,0,185.0,185.0,54.9382,-167.0808,1023.7,8.6,-999.0,yes,yes,no,300234064824370,BD2GI,AOML,NORSEMAN_II,North
2017-07-04T01:00:28Z,1499130029,2017,1,0,185.042,185.042,54.9318,-167.0712,1023.8,8.72,-999.0,yes,yes,no,300234064824370,BD2GI,AOML,NORSEMAN_II,North
2017-07-04T01:59:31Z,1499133571,2017,2,0,185.083,185.083,54.924,-167.064,1024.0,8.83,-999.0,yes,yes,no,300234064824370,BD2GI,AOML,NORSEMAN_II,North
2017-07-04T03:00:00Z,1499137200,2017,3,0,185.125,185.125,54.9154,-167.0632,1024.2,8.82,-999.0,yes,yes,no,300234064824370,BD2GI,AOML,NORSEMAN_II,North
2017-07-04T04:00:28Z,1499140829,2017,4,0,185.167,185.167,54.907,-167.0622,1024.6,8.83,-999.0,yes,yes,no,300234064824370,BD2GI,AOML,NORSEMAN_II,North
2017-07-04T04:59:31Z,1499144371,2017,5,0,185.208,185.208,54.901,-167.0664,1024.7,8.79,-999.0,yes,yes,no,300234064824370,BD2GI,AOML,NORSEMAN_II,North
2017-07-04T06:00:00Z,1499148000,2017,6,0,185.25,185.25,54.8964,-167.0668,1024.7,8.75,-999.0,yes,yes,no,300234064824370,BD2GI,AOML,NORSEMAN_II,North
2017-07-04T07:00:28Z,1499151629,2017,7,0,185.292,185.292,54.8934,-167.0612,1024.9,8.52,-999.0,yes,yes,no,300234064824370,BD2GI,AOML,NORSEMAN_II,North
2017-07-04T07:59:31Z,1499155171,2017,8,0,185.333,185.333,54.8908,-167.0532,1025.2,8.52,-999.0,yes,yes,no,300234064824370,BD2GI,AOML,NORSEMAN_II,North
2017-07-04T09:00:00Z,1499158800,2017,9,0,185.375,185.375,54.8876,-167.0408,1025.5,8.56,-999.0,yes,yes,no,300234064824370,BD2GI,AOML,NORSEMAN_II,North
2017-07-04T10:00:28Z,1499162429,2017,10,0,185.417,185.417,54.8824,-167.027,1025.5,8.63,-999.0,yes,yes,no,300234064824370,BD2GI,AOML,NORSEMAN_II,North
2017-07-04T10:59:31Z,1499165971,2017,11,0,185.458,185.458,54.8756,-167.0154,1025.8,8.62,-999.0,yes,yes,no,300234064824370,BD2GI,AOML,NORSEMAN_II,North
2017-07-04T12:00:00Z,1499169600,2017,12,0,185.5,185.5,54.8682,-167.0092,1025.6,8.65,-999.0,yes,yes,no,300234064824370,BD2GI,AOML,NORSEMAN_II,North
2017-07-04T13:00:28Z,1499173229,2017,13,0,185.542,185.542,54.8598,-167.0066,1025.5,8.66,-999.0,yes,yes,no,300234064824370,BD2GI,AOML,NORSEMAN_II,North
2017-07-04T13:59:31Z,1499176771,2017,14,0,185.583,185.583,54.8512,-167.006,1025.4,8.64,-999.0,yes,yes,no,300234064824370,BD2GI,AOML,NORSEMAN_II,North
2017-07-04T15:00:00Z,1499180400,2017,15,0,185.625,185.625,54.8408,-167.0052,1025.3,8.61,-999.0,yes,yes,no,300234064824370,BD2GI,AOML,NORSEMAN_II,North
2017-07-04T16:00:28Z,1499184029,2017,16,0,185.667,185.667,54.8324,-167.009,1025.2,8.6,-999.0,yes,yes,no,300234064824370,BD2GI,AOML,NORSEMAN_II,North
2017-07-04T16:59:31Z,1499187571,2017,17,0,185.708,185.708,54.8274,-167.0098,1025.2,8.62,-999.0,yes,yes,no,300234064824370,BD2GI,AOML,NORSEMAN_II,North
2017-07-04T18:00:00Z,1499191200,2017,18,0,185.75,185.75,54.8218,-167.0106,1025.2,8.62,-999.0,yes,yes,no,300234064824370,BD2GI,AOML,NORSEMAN_II,North
2017-07-04T19:00:28Z,1499194829,2017,19,0,185.792,185.792,54.8162,-167.0136,1025.3,8.63,-999.0,yes,yes,no,300234064824370,BD2GI,AOML,NORSEMAN_II,North
2017-07-04T19:59:31Z,1499198371,2017,20,0,185.833,185.833,54.81,-167.0168,1025.1,8.66,-999.0,yes,yes,no,300234064824370,BD2GI,AOML,NORSEMAN_II,North
2017-07-04T21:00:00Z,1499202000,2017,21,0,185.875,185.875,54.8054,-167.0134,1025.2,8.69,-999.0,yes,yes,no,300234064824370,BD2GI,AOML,NORSEMAN_II,North
2017-07-04T22:00:28Z,1499205629,2017,22,0,185.917,185.917,54.7994,-167.0046,1024.7,8.78,-999.0,yes,yes,no,300234064824370,BD2GI,AOML,NORSEMAN_II,North
2017-07-04T22:59:31Z,1499209171,2017,23,0,185.958,185.958,54.7936,-166.9982,1024.2,8.83,-999.0,yes,yes,no,300234064824370,BD2GI,AOML,NORSEMAN_II,North
2017-07-05T00:00:00Z,1499212800,2017,0,0,186.0,186.0,54.7866,-166.9932,1024.1,8.8,-999.0,yes,yes,no,300234064824370,BD2GI,AOML,NORSEMAN_II,North
2017-07-05T01:00:28Z,1499216429,2017,1,0,186.042,186.042,54.7772,-166.99,1023.7,8.85,-999.0,yes,yes,no,300234064824370,BD2GI,AOML,NORSEMAN_II,North
2017-07-05T01:59:31Z,1499219971,2017,2,0,186.083,186.083,54.768,-166.9944,1023.0,8.85,-999.0,yes,yes,no,300234064824370,BD2GI,AOML,NORSEMAN_II,North
2017-07-05T03:00:00Z,1499223600,2017,3,0,186.125,186.125,54.7606,-167.0034,1022.4,8.9,-999.0,yes,yes,no,300234064824370,BD2GI,AOML,NORSEMAN_II,North
2017-07-05T04:00:28Z,1499227229,2017,4,0,186.167,186.167,54.7548,-167.0142,1021.7,8.79,-999.0,yes,yes,no,300234064824370,BD2GI,AOML,NORSEMAN_II,North
2017-07-05T04:59:31Z,1499230771,2017,5,0,186.208,186.208,54.7516,-167.022,1021.3,8.76,-999.0,yes,yes,no,300234064824370,BD2GI,AOML,NORSEMAN_II,North
2017-07-05T06:00:00Z,1499234400,2017,6,0,186.25,186.25,54.7484,-167.0262,1020.9,8.76,-999.0,yes,yes,no,300234064824370,BD2GI,AOML,NORSEMAN_II,North
2017-07-05T07:00:28Z,1499238029,2017,7,0,186.292,186.292,54.7444,-167.028,1019.8,8.81,-999.0,yes,yes,no,300234064824370,BD2GI,AOML,NORSEMAN_II,North
2017-07-05T07:59:31Z,1499241571,2017,8,0,186.333,186.333,54.7366,-167.0268,1019.6,8.82,-999.0,yes,yes,no,300234064824370,BD2GI,AOML,NORSEMAN_II,North
2017-07-05T09:00:00Z,1499245200,2017,9,0,186.375,186.375,54.7282,-167.0274,1019.0,8.77,-999.0,yes,yes,no,300234064824370,BD2GI,AOML,NORSEMAN_II,North
2017-07-05T10:00:28Z,1499248829,2017,10,0,186.417,186.417,54.7244,-167.0298,1018.1,8.75,-999.0,yes,yes,no,300234064824370,BD2GI,AOML,NORSEMAN_II,North
2017-07-05T10:59:31Z,1499252371,2017,11,0,186.458,186.458,54.723,-167.03,1017.7,8.71,-999.0,yes,yes,no,300234064824370,BD2GI,AOML,NORSEMAN_II,North
2017-07-05T12:00:00Z,1499256000,2017,12,0,186.5,186.5,54.718,-167.0324,1016.6,8.67,-999.0,yes,yes,no,300234064824370,BD2GI,AOML,NORSEMAN_II,North
2017-07-05T13:00:28Z,1499259629,2017,13,0,186.542,186.542,54.7134,-167.04,1016.0,8.6,-999.0,yes,yes,no,300234064824370,BD2GI,AOML,NORSEMAN_II,North
2017-07-05T13:59:31Z,1499263171,2017,14,0,186.583,186.583,54.709,-167.0396,1015.3,8.57,-999.0,yes,yes,no,300234064824370,BD2GI,AOML,NORSEMAN_II,North
2017-07-05T15:00:00Z,1499266800,2017,15,0,186.625,186.625,54.7024,-167.0402,1014.4,8.53,-999.0,yes,yes,no,300234064824370,BD2GI,AOML,NORSEMAN_II,North
2017-07-05T16:00:28Z,1499270429,2017,16,0,186.667,186.667,54.6948,-167.0476,1013.6,8.49,-999.0,yes,yes,no,300234064824370,BD2GI,AOML,NORSEMAN_II,North
2017-07-05T16:59:31Z,1499273971,2017,17,0,186.708,186.708,54.6864,-167.0598,1012.8,8.46,-999.0,yes,yes,no,300234064824370,BD2GI,AOML,NORSEMAN_II,North
2017-07-05T18:00:00Z,1499277600,2017,18,0,186.75,186.75,54.6806,-167.078,1012.3,8.44,-999.0,yes,yes,no,300234064824370,BD2GI,AOML,NORSEMAN_II,North
2017-07-05T19:00:28Z,1499281229,2017,19,0,186.792,186.792,54.6804,-167.0894,1011.8,8.43,-999.0,yes,yes,no,300234064824370,BD2GI,AOML,NORSEMAN_II,North
2017-07-05T19:59:31Z,1499284771,2017,20,0,186.833,186.833,54.6814,-167.0966,1011.3,8.4,-999.0,yes,yes,no,300234064824370,BD2GI,AOML,NORSEMAN_II,North
2017-07-05T21:00:00Z,1499288400,2017,21,0,186.875,186.875,54.6826,-167.0996,1010.7,8.38,-999.0,yes,yes,no,300234064824370,BD2GI,AOML,NORSEMAN_II,North
2017-07-05T22:00:28Z,1499292029,2017,22,0,186.917,186.917,54.684,-167.1018,1010.2,8.27,-999.0,yes,yes,no,300234064824370,BD2GI,AOML,NORSEMAN_II,North
2017-07-05T22:59:31Z,1499295571,2017,23,0,186.958,186.958,54.6856,-167.103,1009.5,8.24,-999.0,yes,yes,no,300234064824370,BD2GI,AOML,NORSEMAN_II,North
2017-07-06T00:00:00Z,1499299200,2017,0,0,187.0,187.0,54.686,-167.1004,1008.8,8.21,-999.0,yes,yes,no,300234064824370,BD2GI,AOML,NORSEMAN_II,North
2017-07-06T01:00:28Z,1499302829,2017,1,0,187.042,187.042,54.683,-167.1002,1008.4,8.13,-999.0,yes,yes,no,300234064824370,BD2GI,AOML,NORSEMAN_II,North
2017-07-06T01:59:31Z,1499306371,2017,2,0,187.083,187.083,54.6806,-167.1036,1008.2,8.05,-999.0,yes,yes,no,300234064824370,BD2GI,AOML,NORSEMAN_II,North
2017-07-06T03:00:00Z,1499310000,2017,3,0,187.125,187.125,54.678,-167.1102,1008.0,8.02,-999.0,yes,yes,no,300234064824370,BD2GI,AOML,NORSEMAN_II,North
2017-07-06T04:00:28Z,1499313629,2017,4,0,187.167,187.167,54.6742,-167.1236,1007.7,7.98,-999.0,yes,yes,no,300234064824370,BD2GI,AOML,NORSEMAN_II,North
2017-07-06T04:59:31Z,1499317171,2017,5,0,187.208,187.208,54.672,-167.1332,1007.3,7.96,-999.0,yes,yes,no,300234064824370,BD2GI,AOML,NORSEMAN_II,North
2017-07-06T06:00:00Z,1499320800,2017,6,0,187.25,187.25,54.6704,-167.1386,1007.4,7.93,-999.0,yes,yes,no,300234064824370,BD2GI,AOML,NORSEMAN_II,North
2017-07-06T07:00:28Z,1499324429,2017,7,0,187.292,187.292,54.667,-167.142,1007.2,7.93,-999.0,yes,yes,no,300234064824370,BD2GI,AOML,NORSEMAN_II,North
2017-07-06T07:59:31Z,1499327971,2017,8,0,187.333,187.333,54.6614,-167.1474,1007.6,7.89,-999.0,yes,yes,no,300234064824370,BD2GI,AOML,NORSEMAN_II,North
2017-07-06T09:00:00Z,1499331600,2017,9,0,187.375,187.375,54.6528,-167.1538,1008.0,7.87,-999.0,yes,yes,no,300234064824370,BD2GI,AOML,NORSEMAN_II,North
2017-07-06T10:00:28Z,1499335229,2017,10,0,187.417,187.417,54.6456,-167.1658,1007.9,7.86,-999.0,yes,yes,no,300234064824370,BD2GI,AOML,NORSEMAN_II,North
2017-07-06T10:59:31Z,1499338771,2017,11,0,187.458,187.458,54.6396,-167.18,1008.2,7.84,-999.0,yes,yes,no,300234064824370,BD2GI,AOML,NORSEMAN_II,North
2017-07-06T12:00:00Z,1499342400,2017,12,0,187.5,187.5,54.6336,-167.1954,1008.2,7.83,-999.0,yes,yes,no,300234064824370,BD2GI,AOML,NORSEMAN_II,North
2017-07-06T13:00:28Z,1499346029,2017,13,0,187.542,187.542,54.6266,-167.2072,1008.5,7.82,-999.0,yes,yes,no,300234064824370,BD2GI,AOML,NORSEMAN_II,North
2017-07-06T13:59:31Z,1499349571,2017,14,0,187.583,187.583,54.6204,-167.2202,1008.4,7.79,-999.0,yes,yes,no,300234064824370,BD2GI,AOML,NORSEMAN_II,North
2017-07-06T15:00:00Z,1499353200,2017,15,0,187.625,187.625,54.6146,-167.2338,1008.4,7.77,-999.0,yes,yes,no,300234064824370,BD2GI,AOML,NORSEMAN_II,North
2017-07-06T16:00:28Z,1499356829,2017,16,0,187.667,187.667,54.6098,-167.2468,1008.7,7.77,-999.0,yes,yes,no,300234064824370,BD2GI,AOML,NORSEMAN_II,North
2017-07-06T16:59:31Z,1499360371,2017,17,0,187.708,187.708,54.6034,-167.2614,1008.8,7.75,-999.0,yes,yes,no,300234064824370,BD2GI,AOML,NORSEMAN_II,North
2017-07-06T18:00:00Z,1499364000,2017,18,0,187.75,187.75,54.5982,-167.274,1009.1,7.75,-999.0,yes,yes,no,300234064824370,BD2GI,AOML,NORSEMAN_II,North
2017-07-06T19:00:28Z,1499367629,2017,19,0,187.792,187.792,54.5922,-167.2834,1009.1,7.74,-999.0,yes,yes,no,300234064824370,BD2GI,AOML,NORSEMAN_II,North
2017-07-06T19:59:31Z,1499371171,2017,20,0,187.833,187.833,54.5848,-167.2914,1009.6,7.75,-999.0,yes,yes,no,300234064824370,BD2GI,AOML,NORSEMAN_II,North
2017-07-06T21:00:00Z,1499374800,2017,21,0,187.875,187.875,54.5772,-167.3004,1009.7,7.75,-999.0,yes,yes,no,300234064824370,BD2GI,AOML,NORSEMAN_II,North
2017-07-06T22:00:28Z,1499378429,2017,22,0,187.917,187.917,54.5692,-167.3104,1009.9,7.8,-999.0,yes,yes,no,300234064824370,BD2GI,AOML,NORSEMAN_II,North
2017-07-06T22:59:31Z,1499381971,2017,23,0,187.958,187.958,54.5616,-167.3176,1009.6,7.84,-999.0,yes,yes,no,300234064824370,BD2GI,AOML,NORSEMAN_II,North
2017-07-07T00:00:00Z,1499385600,2017,0,0,188.0,188.0,54.552,-167.3216,1009.5,7.89,-999.0,yes,yes,no,300234064824370,BD2GI,AOML,NORSEMAN_II,North
2017-07-07T01:00:28Z,1499389229,2017,1,0,188.042,188.042,54.5406,-167.328,1009.3,7.9,-999.0,yes,yes,no,300234064824370,BD2GI,AOML,NORSEMAN_II,North
2017-07-07T01:59:31Z,1499392771,2017,2,0,188.083,188.083,54.533,-167.3376,1009.3,7.95,-999.0,yes,yes,no,300234064824370,BD2GI,AOML,NORSEMAN_II,North
2017-07-07T03:00:00Z,1499396400,2017,3,0,188.125,188.125,54.5258,-167.346,1008.8,7.96,-999.0,yes,yes,no,300234064824370,BD2GI,AOML,NORSEMAN_II,North
2017-07-07T04:00:28Z,1499400029,2017,4,0,188.167,188.167,54.518,-167.3528,1008.9,7.97,-999.0,yes,yes,no,300234064824370,BD2GI,AOML,NORSEMAN_II,North
2017-07-07T04:59:31Z,1499403571,2017,5,0,188.208,188.208,54.5094,-167.3574,1009.3,7.97,-999.0,yes,yes,no,300234064824370,BD2GI,AOML,NORSEMAN_II,North
2017-07-07T06:00:00Z,1499407200,2017,6,0,188.25,188.25,54.4994,-167.3658,1009.2,7.96,-999.0,yes,yes,no,300234064824370,BD2GI,AOML,NORSEMAN_II,North
2017-07-07T07:00:28Z,1499410829,2017,7,0,188.292,188.292,54.4902,-167.3768,1009.1,7.95,-999.0,yes,yes,no,300234064824370,BD2GI,AOML,NORSEMAN_II,North
2017-07-07T07:59:31Z,1499414371,2017,8,0,188.333,188.333,54.4816,-167.388,1009.4,7.95,-999.0,yes,yes,no,300234064824370,BD2GI,AOML,NORSEMAN_II,North
2017-07-07T09:00:00Z,1499418000,2017,9,0,188.375,188.375,54.4746,-167.3994,1009.3,7.94,-999.0,yes,yes,no,300234064824370,BD2GI,AOML,NORSEMAN_II,North
2017-07-07T10:00:28Z,1499421629,2017,10,0,188.417,188.417,54.468,-167.404,1009.1,7.94,-999.0,yes,yes,no,300234064824370,BD2GI,AOML,NORSEMAN_II,North
2017-07-07T10:59:31Z,1499425171,2017,11,0,188.458,188.458,54.4612,-167.4076,1008.4,7.93,-999.0,yes,yes,no,300234064824370,BD2GI,AOML,NORSEMAN_II,North
2017-07-07T12:00:00Z,1499428800,2017,12,0,188.5,188.5,54.4534,-167.4132,1007.9,7.92,-999.0,yes,yes,no,300234064824370,BD2GI,AOML,NORSEMAN_II,North
2017-07-07T13:00:28Z,1499432429,2017,13,0,188.542,188.542,54.4456,-167.4164,1007.6,7.91,-999.0,yes,yes,no,300234064824370,BD2GI,AOML,NORSEMAN_II,North
2017-07-07T13:59:31Z,1499435971,2017,14,0,188.583,188.583,54.4362,-167.4196,1007.7,7.9,-999.0,yes,yes,no,300234064824370,BD2GI,AOML,NORSEMAN_II,North
2017-07-07T15:00:00Z,1499439600,2017,15,0,188.625,188.625,54.4266,-167.4242,1007.6,7.88,-999.0,yes,yes,no,300234064824370,BD2GI,AOML,NORSEMAN_II,North
2017-07-07T16:00:28Z,1499443229,2017,16,0,188.667,188.667,54.4172,-167.4316,1007.5,7.9,-999.0,yes,yes,no,300234064824370,BD2GI,AOML,NORSEMAN_II,North
2017-07-07T16:59:31Z,1499446771,2017,17,0,188.708,188.708,54.4094,-167.4366,1007.8,7.9,-999.0,yes,yes,no,300234064824370,BD2GI,AOML,NORSEMAN_II,North
2017-07-07T18:00:00Z,1499450400,2017,18,0,188.75,188.75,54.3996,-167.4424,1008.0,7.92,-999.0,yes,yes,no,300234064824370,BD2GI,AOML,NORSEMAN_II,North
2017-07-07T19:00:28Z,1499454029,2017,19,0,188.792,188.792,54.3882,-167.447,1007.9,7.94,-999.0,yes,yes,no,300234064824370,BD2GI,AOML,NORSEMAN_II,North
2017-07-07T19:59:31Z,1499457571,2017,20,0,188.833,188.833,54.3742,-167.4502,1008.2,7.96,-999.0,yes,yes,no,300234064824370,BD2GI,AOML,NORSEMAN_II,North
2017-07-07T21:00:00Z,1499461200,2017,21,0,188.875,188.875,54.3628,-167.4538,1008.4,7.96,-999.0,yes,yes,no,300234064824370,BD2GI,AOML,NORSEMAN_II,North
2017-07-07T22:00:28Z,1499464829,2017,22,0,188.917,188.917,54.3498,-167.4586,1008.2,7.98,-999.0,yes,yes,no,300234064824370,BD2GI,AOML,NORSEMAN_II,North
2017-07-07T22:59:31Z,1499468371,2017,23,0,188.958,188.958,54.3378,-167.4614,1008.7,7.98,-999.0,yes,yes,no,300234064824370,BD2GI,AOML,NORSEMAN_II,North
2017-07-08T00:00:00Z,1499472000,2017,0,0,189.0,189.0,54.3262,-167.469,1007.5,7.98,-999.0,yes,yes,no,300234064824370,BD2GI,AOML,NORSEMAN_II,North
2017-07-08T01:00:28Z,1499475629,2017,1,0,189.042,189.042,54.3144,-167.481,1008.2,8.01,-999.0,yes,yes,no,300234064824370,BD2GI,AOML,NORSEMAN_II,North
2017-07-08T01:59:31Z,1499479171,2017,2,0,189.083,189.083,54.3076,-167.4892,1007.6,8.0,-999.0,yes,yes,no,300234064824370,BD2GI,AOML,NORSEMAN_II,North
2017-07-08T03:00:00Z,1499482800,2017,3,0,189.125,189.125,54.2992,-167.4956,1007.3,7.99,-999.0,yes,yes,no,300234064824370,BD2GI,AOML,NORSEMAN_II,North
2017-07-08T04:00:28Z,1499486429,2017,4,0,189.167,189.167,54.2898,-167.5008,1007.0,7.97,-999.0,yes,yes,no,300234064824370,BD2GI,AOML,NORSEMAN_II,North
2017-07-08T04:59:31Z,1499489971,2017,5,0,189.208,189.208,54.2792,-167.5094,1007.0,7.97,-999.0,yes,yes,no,300234064824370,BD2GI,AOML,NORSEMAN_II,North
2017-07-08T06:00:00Z,1499493600,2017,6,0,189.25,189.25,54.2688,-167.5142,1006.8,7.99,-999.0,yes,yes,no,300234064824370,BD2GI,AOML,NORSEMAN_II,North
2017-07-08T07:00:28Z,1499497229,2017,7,0,189.292,189.292,54.2606,-167.5264,1006.6,7.98,-999.0,yes,yes,no,300234064824370,BD2GI,AOML,NORSEMAN_II,North
2017-07-08T07:59:31Z,1499500771,2017,8,0,189.333,189.333,54.2526,-167.537,1006.3,8.04,-999.0,yes,yes,no,300234064824370,BD2GI,AOML,NORSEMAN_II,North
2017-07-08T09:00:00Z,1499504400,2017,9,0,189.375,189.375,54.2452,-167.5466,1006.2,8.1,-999.0,yes,yes,no,300234064824370,BD2GI,AOML,NORSEMAN_II,North
2017-07-08T10:00:28Z,1499508029,2017,10,0,189.417,189.417,54.2384,-167.5536,1005.6,8.1,-999.0,yes,yes,no,300234064824370,BD2GI,AOML,NORSEMAN_II,North
2017-07-08T10:59:31Z,1499511571,2017,11,0,189.458,189.458,54.23,-167.5576,1004.9,8.12,-999.0,yes,yes,no,300234064824370,BD2GI,AOML,NORSEMAN_II,North
2017-07-08T12:00:00Z,1499515200,2017,12,0,189.5,189.5,54.2226,-167.5618,1004.4,8.08,-999.0,yes,yes,no,300234064824370,BD2GI,AOML,NORSEMAN_II,North
2017-07-08T13:00:28Z,1499518829,2017,13,0,189.542,189.542,54.2154,-167.5648,1004.1,8.07,-999.0,yes,yes,no,300234064824370,BD2GI,AOML,NORSEMAN_II,North
2017-07-08T13:59:31Z,1499522371,2017,14,0,189.583,189.583,54.2066,-167.5654,1003.3,8.05,-999.0,yes,yes,no,300234064824370,BD2GI,AOML,NORSEMAN_II,North
2017-07-08T15:00:00Z,1499526000,2017,15,0,189.625,189.625,54.1982,-167.565,1003.0,8.05,-999.0,yes,yes,no,300234064824370,BD2GI,AOML,NORSEMAN_II,North
2017-07-08T16:00:28Z,1499529629,2017,16,0,189.667,189.667,54.1872,-167.5632,1002.6,8.13,-999.0,yes,yes,no,300234064824370,BD2GI,AOML,NORSEMAN_II,North
2017-07-08T16:59:31Z,1499533171,2017,17,0,189.708,189.708,54.1762,-167.5676,1002.0,8.14,-999.0,yes,yes,no,300234064824370,BD2GI,AOML,NORSEMAN_II,North
2017-07-08T18:00:00Z,1499536800,2017,18,0,189.75,189.75,54.1654,-167.5766,1001.7,8.1,-999.0,yes,yes,no,300234064824370,BD2GI,AOML,NORSEMAN_II,North
2017-07-08T19:00:28Z,1499540429,2017,19,0,189.792,189.792,54.1532,-167.5832,1001.9,8.08,-999.0,yes,yes,no,300234064824370,BD2GI,AOML,NORSEMAN_II,North
2017-07-08T19:59:31Z,1499543971,2017,20,0,189.833,189.833,54.145,-167.593,1001.5,8.08,-999.0,yes,yes,no,300234064824370,BD2GI,AOML,NORSEMAN_II,North
2017-07-08T21:00:00Z,1499547600,2017,21,0,189.875,189.875,54.138,-167.6052,1001.1,8.14,-999.0,yes,yes,no,300234064824370,BD2GI,AOML,NORSEMAN_II,North
2017-07-08T22:00:28Z,1499551229,2017,22,0,189.917,189.917,54.134,-167.6068,1000.8,8.14,-999.0,yes,yes,no,300234064824370,BD2GI,AOML,NORSEMAN_II,North
2017-07-08T22:59:31Z,1499554771,2017,23,0,189.958,189.958,54.1306,-167.609,1000.5,8.25,-999.0,yes,yes,no,300234064824370,BD2GI,AOML,NORSEMAN_II,North
2017-07-09T00:00:00Z,1499558400,2017,0,0,190.0,190.0,54.1256,-167.609,1000.4,8.24,-999.0,yes,yes,no,300234064824370,BD2GI,AOML,NORSEMAN_II,North
2017-07-09T01:00:28Z,1499562029,2017,1,0,190.042,190.042,54.1202,-167.6058,1000.6,8.28,-999.0,yes,yes,no,300234064824370,BD2GI,AOML,NORSEMAN_II,North
2017-07-09T01:59:31Z,1499565571,2017,2,0,190.083,190.083,54.1134,-167.6082,1000.5,8.26,-999.0,yes,yes,no,300234064824370,BD2GI,AOML,NORSEMAN_II,North
2017-07-09T03:00:00Z,1499569200,2017,3,0,190.125,190.125,54.1062,-167.6088,1000.6,8.25,-999.0,yes,yes,no,300234064824370,BD2GI,AOML,NORSEMAN_II,North
2017-07-09T04:00:28Z,1499572829,2017,4,0,190.167,190.167,54.0972,-167.606,1000.8,8.24,-999.0,yes,yes,no,300234064824370,BD2GI,AOML,NORSEMAN_II,North
2017-07-09T04:59:31Z,1499576371,2017,5,0,190.208,190.208,54.0878,-167.606,1000.6,8.24,-999.0,yes,yes,no,300234064824370,BD2GI,AOML,NORSEMAN_II,North
2017-07-09T06:00:00Z,1499580000,2017,6,0,190.25,190.25,54.0768,-167.6094,1000.5,8.23,-999.0,yes,yes,no,300234064824370,BD2GI,AOML,NORSEMAN_II,North
2017-07-09T07:00:28Z,1499583629,2017,7,0,190.292,190.292,54.0672,-167.6168,1000.7,8.24,-999.0,yes,yes,no,300234064824370,BD2GI,AOML,NORSEMAN_II,North
2017-07-09T07:59:31Z,1499587171,2017,8,0,190.333,190.333,54.0588,-167.625,1001.2,8.22,-999.0,yes,yes,no,300234064824370,BD2GI,AOML,NORSEMAN_II,North
2017-07-09T09:00:00Z,1499590800,2017,9,0,190.375,190.375,54.0506,-167.6334,1001.4,8.2,-999.0,yes,yes,no,300234064824370,BD2GI,AOML,NORSEMAN_II,North
2017-07-09T10:00:28Z,1499594429,2017,10,0,190.417,190.417,54.0414,-167.6436,1001.7,8.19,-999.0,yes,yes,no,300234064824370,BD2GI,AOML,NORSEMAN_II,North
2017-07-09T10:59:31Z,1499597971,2017,11,0,190.458,190.458,54.0356,-167.6552,1001.8,8.18,-999.0,yes,yes,no,300234064824370,BD2GI,AOML,NORSEMAN_II,North
2017-07-09T12:00:00Z,1499601600,2017,12,0,190.5,190.5,54.032,-167.6644,1001.7,8.2,-999.0,yes,yes,no,300234064824370,BD2GI,AOML,NORSEMAN_II,North
2017-07-09T13:00:28Z,1499605229,2017,13,0,190.542,190.542,54.03,-167.6716,1001.9,8.19,-999.0,yes,yes,no,300234064824370,BD2GI,AOML,NORSEMAN_II,North
2017-07-09T13:59:31Z,1499608771,2017,14,0,190.583,190.583,54.0304,-167.6728,1002.0,8.18,-999.0,yes,yes,no,300234064824370,BD2GI,AOML,NORSEMAN_II,North
2017-07-09T15:00:00Z,1499612400,2017,15,0,190.625,190.625,54.029,-167.6658,1002.0,8.18,-999.0,yes,yes,no,300234064824370,BD2GI,AOML,NORSEMAN_II,North
2017-07-09T16:00:28Z,1499616029,2017,16,0,190.667,190.667,54.0242,-167.6572,1002.3,8.18,-999.0,yes,yes,no,300234064824370,BD2GI,AOML,NORSEMAN_II,North
2017-07-09T16:59:31Z,1499619571,2017,17,0,190.708,190.708,54.017,-167.65,1002.5,8.17,-999.0,yes,yes,no,300234064824370,BD2GI,AOML,NORSEMAN_II,North
2017-07-09T18:00:00Z,1499623200,2017,18,0,190.75,190.75,54.0048,-167.6354,1003.2,8.16,-999.0,yes,yes,no,300234064824370,BD2GI,AOML,NORSEMAN_II,North
2017-07-09T19:00:28Z,1499626829,2017,19,0,190.792,190.792,53.9942,-167.639,1003.8,8.16,-999.0,yes,yes,no,300234064824370,BD2GI,AOML,NORSEMAN_II,North
2017-07-09T19:59:31Z,1499630371,2017,20,0,190.833,190.833,53.9818,-167.6358,1004.3,8.15,-999.0,yes,yes,no,300234064824370,BD2GI,AOML,NORSEMAN_II,North
2017-07-09T21:00:00Z,1499634000,2017,21,0,190.875,190.875,53.9682,-167.6362,1004.7,8.16,-999.0,yes,yes,no,300234064824370,BD2GI,AOML,NORSEMAN_II,North
2017-07-09T22:00:28Z,1499637629,2017,22,0,190.917,190.917,53.9568,-167.6404,1005.5,8.15,-999.0,yes,yes,no,300234064824370,BD2GI,AOML,NORSEMAN_II,North
2017-07-09T22:59:31Z,1499641171,2017,23,0,190.958,190.958,53.9476,-167.6508,1006.0,8.15,-999.0,yes,yes,no,300234064824370,BD2GI,AOML,NORSEMAN_II,North